This demonstration page uses our WeatherBlox Daily Observations layout. Learn more.

39.29038, -76.61219

Hourly Observations for April 29, 2019

Temp ( °F °C ) Dew Point ( °F °C ) Humidity (%) Winds ( mph kmh ) Pressure ( in mb ) Visibility ( mi km ) Precip ( " mm )
12:54 am 00:54 undefined 50 10 37 2.8 61 61 undefined N/A 30.31 1026 N/A 0 0
1:54 am 01:54 undefined 49 9.4 36 2.2 61 61 undefined N/A 30.32 1027 N/A 0 0
2:54 am 02:54 undefined 48 8.9 36 2.2 63 63 undefined N/A 30.33 1027 N/A 0 0
3:54 am 03:54 undefined 48 8.9 35 1.7 61 61 undefined N/A 30.34 1028 N/A 0 0
4:54 am 04:54 undefined 47 8.3 35 1.7 63 63 undefined N/A 30.36 1028 N/A 0 0
5:54 am 05:54 undefined 47 8.3 33 0.6 59 59 undefined N/A 30.38 1029 N/A 0 0
6:54 am 06:54 undefined 47 8.3 33 0.6 59 59 undefined N/A 30.4 1029 N/A 0 0
7:54 am 07:54 undefined 49 9.4 31 -0.6 50 50 undefined N/A 30.41 1030 N/A 0 0
8:54 am 08:54 undefined 51 10.6 28 -2.2 41 41 undefined N/A 30.44 1031 N/A 0 0
9:54 am 09:54 undefined 53 11.7 30 -1.1 41 41 undefined N/A 30.43 1031 N/A 0 0
10:54 am 10:54 undefined 55 12.8 31 -0.6 40 40 undefined N/A 30.43 1031 N/A 0 0
11:54 am 11:54 undefined 55 12.8 30 -1.1 38 38 undefined N/A 30.42 1030 N/A 0 0
12:54 pm 12:54 undefined 56 13.3 33 0.6 42 42 undefined N/A 30.4 1030 N/A 0 0
1:54 pm 13:54 undefined 59 15 35 1.7 41 41 undefined N/A 30.37 1028 N/A 0 0
2:54 pm 14:54 undefined 60 15.6 37 2.8 42 42 undefined N/A 30.33 1027 N/A 0 0
3:54 pm 15:54 undefined 60 15.6 38 3.3 44 44 undefined N/A 30.29 1026 N/A 0 0
4:54 pm 16:54 undefined 60 15.6 38 3.3 44 44 undefined N/A 30.27 1025 N/A 0 0
5:54 pm 17:54 undefined 60 15.6 39 3.9 46 46 undefined N/A 30.28 1025 N/A 0 0
6:54 pm 18:54 undefined 58 14.4 42 5.6 56 56 undefined N/A 30.27 1025 N/A 0 0
7:54 pm 19:54 undefined 58 14.4 43 6.1 58 58 undefined N/A 30.24 1024 N/A 0 0
9:54 pm 21:54 undefined 56 13.3 49 9.4 77 77 undefined N/A 30.22 1023 N/A 0 0
10:54 pm 22:54 undefined 55 12.8 49 9.4 80 80 undefined N/A 30.23 1024 N/A 0 0
11:54 pm 23:54 undefined 56 13.3 50 10 81 81 undefined N/A 30.22 1023 N/A 0 0

Powered by AerisWeather